Location: Broletto
(44.6000°N, 10.5833°E)
Time: 06:14:51
(UTC+00:00)

BREEZE-M DEB (TANK) - Pass Details

Date: 18 April 2021
Orbit: 317 x 14227 km, 49.6° (Epoch: 05 May)

Event Time Altitude Azimuth Distance (km) Brightness Sun altitude
Rises 20:04:16 0° 295° (WNW) 2,249 7.2 -19.3°
Reaches altitude 10° 20:06:14 10° 302° (WNW) 1,238 5.6 -19.6°
Enters shadow 20:08:09 42° 355° (N) 480 2.6 -19.8°
